| time (UTC) | temp F | wind direction | speed MPH | gust MPH | rain 1hr in | rain 24hr in | rain mn in | humidity % | barometer mb |
| 20260508112837 | 56 | 132 | 0.0 | 0.0 | 0.00 | 0.00 | 0.00 | 96 | 1014.6 |
| 20260508112332 | 56 | 188 | 0.0 | 0.0 | 0.00 | 0.00 | 0.00 | 96 | 1014.5 |
| 20260508111827 | 56 | 206 | 0.0 | 0.0 | 0.00 | 0.00 | 0.00 | 96 | 1014.5 |
| 20260508111319 | 56 | 206 | 0.0 | 0.0 | 0.00 | 0.00 | 0.00 | 96 | 1014.5 |
| 20260508110813 | 56 | 206 | 0.0 | 0.0 | 0.00 | 0.00 | 0.00 | 96 | 1014.5 |
| 20260508110307 | 56 | 206 | 0.0 | 0.0 | 0.00 | 0.00 | 0.00 | 96 | 1014.4 |
| 20260508105802 | 56 | 155 | 0.0 | 0.0 | 0.00 | 0.00 | 0.00 | 96 | 1014.4 |
| 20260508105255 | 56 | 155 | 0.0 | 0.0 | 0.00 | 0.00 | 0.00 | 96 | 1014.5 |
| 20260508104749 | 56 | 108 | 0.0 | 0.0 | 0.00 | 0.00 | 0.00 | 96 | 1014.5 |
| 20260508104244 | 56 | 108 | 0.0 | 0.0 | 0.00 | 0.00 | 0.00 | 96 | 1014.6 |
| 20260508103739 | 56 | 148 | 0.0 | 0.0 | 0.00 | 0.00 | 0.00 | 96 | 1014.6 |
| 20260508103500 | 56 | 184 | 0.0 | 0.0 | 0.00 | 0.00 | 0.00 | 96 | 1014.5 |
| 20260508102727 | 56 | 184 | 0.0 | 0.0 | 0.00 | 0.00 | 0.00 | 96 | 1014.6 |
| 20260508102709 | 56 | 181 | 0.0 | 0.0 | 0.00 | 0.00 | 0.00 | 96 | 1014.5 |
| 20260508101713 | 56 | 162 | 0.0 | 0.0 | 0.00 | 0.00 | 0.00 | 96 | 1014.5 |
| 20260508101432 | 56 | 162 | 0.0 | 0.0 | 0.00 | 0.00 | 0.00 | 96 | 1014.6 |
| 20260508100702 | 56 | 162 | 0.0 | 0.0 | 0.00 | 0.00 | 0.00 | 96 | 1014.6 |
| 20260508100155 | 56 | 162 | 0.0 | 0.0 | 0.00 | 0.00 | 0.00 | 95 | 1014.6 |
| 20260508095650 | 56 | 215 | 0.0 | 0.0 | 0.00 | 0.00 | 0.00 | 95 | 1014.6 |
| 20260508095143 | 56 | 215 | 0.0 | 0.0 | 0.00 | 0.00 | 0.00 | 95 | 1014.7 |
| 20260508094637 | 56 | 215 | 0.0 | 0.0 | 0.00 | 0.00 | 0.00 | 95 | 1014.6 |
| 20260508094133 | 56 | 215 | 0.0 | 0.0 | 0.00 | 0.00 | 0.00 | 95 | 1014.6 |
| 20260508093625 | 56 | 215 | 0.0 | 0.0 | 0.00 | 0.00 | 0.00 | 95 | 1014.8 |
| 20260508093119 | 56 | 215 | 0.0 | 0.0 | 0.00 | 0.00 | 0.00 | 95 | 1014.7 |
| 20260508092614 | 56 | 215 | 0.0 | 0.0 | 0.00 | 0.00 | 0.00 | 96 | 1014.7 |
| 20260508092331 | 56 | 215 | 0.0 | 0.0 | 0.00 | 0.00 | 0.00 | 96 | 1014.6 |
| 20260508091601 | 56 | 215 | 0.0 | 0.0 | 0.00 | 0.00 | 0.00 | 96 | 1014.8 |
| 20260508091320 | 56 | 215 | 0.0 | 0.0 | 0.00 | 0.00 | 0.00 | 96 | 1014.7 |
| 20260508090550 | 56 | 215 | 0.0 | 0.0 | 0.00 | 0.00 | 0.00 | 95 | 1014.8 |
| 20260508090046 | 56 | 215 | 0.0 | 0.0 | 0.00 | 0.00 | 0.00 | 95 | 1014.7 |
| 20260508085537 | 56 | 125 | 0.0 | 0.0 | 0.00 | 0.00 | 0.00 | 95 | 1014.8 |
| 20260508085032 | 56 | 125 | 0.0 | 0.0 | 0.00 | 0.00 | 0.00 | 95 | 1014.8 |
| 20260508084526 | 56 | 125 | 0.0 | 0.0 | 0.00 | 0.00 | 0.00 | 95 | 1014.9 |
| 20260508084019 | 56 | 125 | 0.0 | 0.0 | 0.00 | 0.00 | 0.00 | 95 | 1014.9 |
| 20260508083513 | 56 | 158 | 0.0 | 0.0 | 0.00 | 0.00 | 0.00 | 95 | 1014.9 |
| 20260508083007 | 56 | 158 | 0.0 | 0.0 | 0.00 | 0.00 | 0.00 | 95 | 1014.9 |
| 20260508082502 | 56 | 102 | 0.0 | 0.0 | 0.00 | 0.00 | 0.00 | 95 | 1014.9 |
| 20260508082215 | 56 | 103 | 0.0 | 0.0 | 0.00 | 0.00 | 0.00 | 95 | 1015.0 |
| 20260508081449 | 56 | 102 | 0.0 | 0.0 | 0.00 | 0.00 | 0.00 | 95 | 1015.0 |
| 20260508080944 | 56 | 102 | 0.0 | 0.0 | 0.00 | 0.00 | 0.00 | 95 | 1015.1 |
| 20260508080705 | 56 | 102 | 0.0 | 0.0 | 0.00 | 0.00 | 0.00 | 95 | 1015.2 |
| 20260508080205 | 56 | 102 | 0.0 | 0.0 | 0.00 | 0.00 | 0.00 | 95 | 1015.2 |
| 20260508075425 | 56 | 102 | 0.0 | 0.0 | 0.00 | 0.00 | 0.00 | 95 | 1015.2 |
| 20260508074920 | 56 | 102 | 0.0 | 0.0 | 0.00 | 0.00 | 0.00 | 95 | 1015.2 |
| 20260508074413 | 56 | 102 | 0.0 | 0.0 | 0.00 | 0.00 | 0.00 | 95 | 1015.2 |
| 20260508073907 | 56 | 102 | 0.0 | 2.0 | 0.00 | 0.00 | 0.00 | 94 | 1015.3 |
| 20260508073401 | 56 | 102 | 0.0 | 2.0 | 0.00 | 0.00 | 0.00 | 94 | 1015.3 |
| 20260508073122 | 56 | 102 | 0.0 | 2.0 | 0.00 | 0.00 | 0.00 | 94 | 1015.4 |
| 20260508072615 | 56 | 106 | 0.0 | 2.0 | 0.00 | 0.00 | 0.00 | 94 | 1015.4 |
| 20260508071850 | 56 | 130 | 0.0 | 1.0 | 0.00 | 0.00 | 0.00 | 94 | 1015.5 |
| 20260508071349 | 56 | 166 | 0.0 | 1.0 | 0.00 | 0.00 | 0.00 | 94 | 1015.4 |
| 20260508070848 | 56 | 166 | 0.0 | 1.0 | 0.00 | 0.00 | 0.00 | 94 | 1015.3 |
| 20260508070346 | 56 | 166 | 0.0 | 1.0 | 0.00 | 0.00 | 0.00 | 94 | 1015.4 |
| 20260508065848 | 56 | 220 | 0.0 | 0.0 | 0.00 | 0.00 | 0.00 | 95 | 1015.6 |
| 20260508065346 | 56 | 101 | 0.0 | 0.0 | 0.00 | 0.00 | 0.00 | 94 | 1015.5 |
| 20260508064845 | 56 | 130 | 0.0 | 0.0 | 0.00 | 0.00 | 0.00 | 94 | 1015.5 |
| 20260508064345 | 56 | 174 | 0.0 | 0.0 | 0.00 | 0.00 | 0.00 | 94 | 1015.5 |
| 20260508063846 | 56 | 163 | 0.0 | 0.0 | 0.00 | 0.00 | 0.00 | 94 | 1015.5 |
| 20260508063346 | 56 | 139 | 0.0 | 0.0 | 0.00 | 0.00 | 0.00 | 94 | 1015.5 |
| 20260508062846 | 56 | 129 | 0.0 | 0.0 | 0.00 | 0.00 | 0.00 | 94 | 1015.4 |
| 20260508062342 | 56 | 129 | 0.0 | 0.0 | 0.00 | 0.00 | 0.00 | 94 | 1015.4 |
| 20260508062103 | 56 | 129 | 0.0 | 0.0 | 0.00 | 0.00 | 0.00 | 94 | 1015.4 |
| 20260508061342 | 56 | 129 | 0.0 | 0.0 | 0.00 | 0.00 | 0.00 | 94 | 1015.4 |
| 20260508060840 | 56 | 129 | 0.0 | 0.0 | 0.00 | 0.00 | 0.00 | 94 | 1015.2 |
| 20260508060601 | 56 | 129 | 0.0 | 0.0 | 0.00 | 0.00 | 0.00 | 94 | 1015.4 |
| 20260508055840 | 56 | 36 | 0.0 | 0.0 | 0.00 | 0.00 | 0.00 | 94 | 1015.4 |
| 20260508055342 | 56 | 12 | 0.0 | 0.0 | 0.00 | 0.00 | 0.00 | 94 | 1015.4 |
| 20260508054841 | 55 | 12 | 0.0 | 0.0 | 0.00 | 0.00 | 0.00 | 93 | 1015.3 |
| 20260508054341 | 55 | 12 | 0.0 | 0.0 | 0.00 | 0.00 | 0.00 | 93 | 1015.2 |
| 20260508053838 | 55 | 12 | 0.0 | 0.0 | 0.00 | 0.00 | 0.00 | 93 | 1015.3 |
| 20260508053337 | 55 | 12 | 0.0 | 0.0 | 0.00 | 0.00 | 0.00 | 93 | 1015.2 |
| 20260508052837 | 55 | 12 | 0.0 | 0.0 | 0.00 | 0.00 | 0.00 | 92 | 1015.3 |
| 20260508052558 | 55 | 12 | 0.0 | 0.0 | 0.00 | 0.00 | 0.00 | 92 | 1015.3 |
| 20260508051837 | 56 | 12 | 0.0 | 0.0 | 0.00 | 0.00 | 0.00 | 92 | 1015.2 |
| 20260508051336 | 56 | 12 | 0.0 | 0.0 | 0.00 | 0.00 | 0.00 | 92 | 1015.4 |
| 20260508050839 | 56 | 12 | 0.0 | 0.0 | 0.00 | 0.00 | 0.00 | 92 | 1015.4 |
| 20260508050338 | 56 | 12 | 0.0 | 0.0 | 0.00 | 0.00 | 0.00 | 92 | 1015.3 |
| 20260508045838 | 56 | 12 | 0.0 | 0.0 | 0.00 | 0.00 | 0.00 | 92 | 1015.3 |
| 20260508045552 | 56 | 12 | 0.0 | 0.0 | 0.00 | 0.00 | 0.00 | 91 | 1015.1 |
| 20260508044834 | 56 | 12 | 0.0 | 0.0 | 0.00 | 0.00 | 0.00 | 91 | 1015.1 |
| 20260508044333 | 56 | 12 | 0.0 | 0.0 | 0.00 | 0.00 | 0.00 | 91 | 1015.1 |
| 20260508043833 | 56 | 12 | 0.0 | 0.0 | 0.00 | 0.00 | 0.00 | 90 | 1015.1 |
| 20260508043333 | 56 | 12 | 0.0 | 0.0 | 0.00 | 0.00 | 0.00 | 90 | 1015.0 |
| 20260508042835 | 57 | 12 | 0.0 | 0.0 | 0.00 | 0.00 | 0.00 | 90 | 1014.9 |
| 20260508042334 | 57 | 12 | 0.0 | 0.0 | 0.00 | 0.00 | 0.00 | 90 | 1014.8 |
| 20260508041834 | 57 | 12 | 0.0 | 0.0 | 0.00 | 0.00 | 0.00 | 90 | 1014.8 |
| 20260508041334 | 57 | 12 | 0.0 | 0.0 | 0.00 | 0.00 | 0.00 | 90 | 1014.8 |
| 20260508041314 | 57 | 12 | 0.0 | 0.0 | 0.00 | 0.00 | 0.00 | 89 | 1014.7 |
| 20260508040329 | 57 | 12 | 0.0 | 0.0 | 0.00 | 0.00 | 0.00 | 88 | 1014.7 |
| 20260508035829 | 57 | 12 | 0.0 | 0.0 | 0.00 | 0.00 | 0.00 | 88 | 1014.6 |
| 20260508035332 | 57 | 12 | 0.0 | 0.0 | 0.00 | 0.00 | 0.00 | 88 | 1014.5 |
| 20260508034829 | 58 | 12 | 0.0 | 0.0 | 0.00 | 0.00 | 0.00 | 87 | 1014.5 |
| 20260508034332 | 58 | 12 | 0.0 | 0.0 | 0.00 | 0.00 | 0.00 | 87 | 1014.2 |
| 20260508033830 | 58 | 12 | 0.0 | 0.0 | 0.00 | 0.00 | 0.00 | 87 | 1014.2 |
| 20260508033550 | 58 | 12 | 0.0 | 0.0 | 0.00 | 0.00 | 0.00 | 86 | 1014.1 |
| 20260508033059 | 58 | 12 | 0.0 | 0.0 | 0.00 | 0.00 | 0.00 | 86 | 1014.0 |
| 20260508032551 | 59 | 12 | 0.0 | 0.0 | 0.00 | 0.00 | 0.00 | 86 | 1014.0 |
| 20260508032052 | 59 | 12 | 0.0 | 0.0 | 0.00 | 0.00 | 0.00 | 86 | 1014.1 |
| 20260508031330 | 59 | 12 | 0.0 | 0.0 | 0.00 | 0.00 | 0.00 | 85 | 1014.0 |
| 20260508031057 | 59 | 12 | 0.0 | 0.0 | 0.00 | 0.00 | 0.00 | 85 | 1013.9 |
| 20260508030330 | 60 | 12 | 0.0 | 0.0 | 0.00 | 0.00 | 0.00 | 84 | 1013.8 |
| 20260508025831 | 60 | 12 | 0.0 | 0.0 | 0.00 | 0.00 | 0.00 | 83 | 1013.9 |
| 20260508025330 | 60 | 12 | 0.0 | 0.0 | 0.00 | 0.00 | 0.00 | 82 | 1013.9 |
| 20260508024829 | 61 | 12 | 0.0 | 0.0 | 0.00 | 0.00 | 0.00 | 81 | 1013.9 |
| 20260508024329 | 62 | 12 | 0.0 | 0.0 | 0.00 | 0.00 | 0.00 | 80 | 1013.7 |
| 20260508024050 | 62 | 16 | 0.0 | 0.0 | 0.00 | 0.00 | 0.00 | 79 | 1013.7 |
| 20260508023319 | 63 | 131 | 0.0 | 0.0 | 0.00 | 0.00 | 0.00 | 77 | 1013.6 |
| 20260508023251 | 64 | 131 | 0.0 | 0.0 | 0.00 | 0.00 | 0.00 | 76 | 1013.6 |
| 20260508022307 | 64 | 131 | 0.0 | 0.0 | 0.00 | 0.00 | 0.00 | 76 | 1013.6 |
| 20260508021759 | 65 | 131 | 0.0 | 0.0 | 0.00 | 0.00 | 0.00 | 75 | 1013.7 |
| 20260508021254 | 65 | 131 | 0.0 | 0.0 | 0.00 | 0.00 | 0.00 | 73 | 1013.4 |
| 20260508020748 | 66 | 169 | 0.0 | 0.0 | 0.00 | 0.00 | 0.00 | 73 | 1013.3 |
| 20260508020241 | 66 | 169 | 0.0 | 0.0 | 0.00 | 0.00 | 0.00 | 71 | 1013.3 |
| 20260508015736 | 67 | 169 | 0.0 | 0.0 | 0.00 | 0.00 | 0.00 | 70 | 1013.4 |
| 20260508015229 | 68 | 169 | 0.0 | 0.0 | 0.00 | 0.00 | 0.00 | 70 | 1013.4 |
| 20260508014952 | 68 | 167 | 0.0 | 1.0 | 0.00 | 0.00 | 0.00 | 69 | 1013.4 |
| 20260508014217 | 68 | 169 | 0.0 | 1.0 | 0.00 | 0.00 | 0.00 | 69 | 1013.4 |
| 20260508013940 | 68 | 176 | 0.0 | 1.0 | 0.00 | 0.00 | 0.00 | 69 | 1013.3 |
| 20260508013205 | 69 | 170 | 0.0 | 2.0 | 0.00 | 0.00 | 0.00 | 68 | 1013.2 |
| 20260508013145 | 69 | 181 | 0.0 | 2.0 | 0.00 | 0.00 | 0.00 | 69 | 1013.2 |
| 20260508012155 | 68 | 198 | 0.0 | 2.0 | 0.00 | 0.00 | 0.00 | 69 | 1013.3 |
| 20260508011647 | 69 | 169 | 0.0 | 2.0 | 0.00 | 0.00 | 0.00 | 68 | 1013.3 |
| 20260508011633 | 69 | 201 | 0.0 | 2.0 | 0.00 | 0.00 | 0.00 | 68 | 1013.4 |
| 20260508010635 | 69 | 176 | 0.0 | 2.0 | 0.00 | 0.00 | 0.00 | 68 | 1013.3 |
| 20260508010129 | 69 | 212 | 0.0 | 5.0 | 0.00 | 0.00 | 0.00 | 68 | 1013.2 |
| 20260508005623 | 69 | 167 | 0.0 | 5.0 | 0.00 | 0.00 | 0.00 | 67 | 1013.2 |
| 20260508005117 | 70 | 237 | 0.0 | 5.0 | 0.00 | 0.00 | 0.00 | 66 | 1013.2 |
| 20260508004612 | 70 | 229 | 0.0 | 5.0 | 0.00 | 0.00 | 0.00 | 65 | 1013.1 |
| 20260508004105 | 71 | 214 | 1.0 | 3.0 | 0.00 | 0.00 | 0.00 | 64 | 1013.2 |
| 20260508003828 | 71 | 246 | 0.0 | 6.0 | 0.00 | 0.00 | 0.00 | 64 | 1013.2 |
| 20260508003053 | 71 | 213 | 1.0 | 6.0 | 0.00 | 0.00 | 0.00 | 64 | 1013.2 |
| 20260508002547 | 71 | 182 | 0.0 | 6.0 | 0.00 | 0.00 | 0.00 | 64 | 1013.2 |
| 20260508002041 | 71 | 169 | 0.0 | 5.0 | 0.00 | 0.00 | 0.00 | 63 | 1013.3 |
| 20260508001535 | 71 | 211 | 0.0 | 5.0 | 0.00 | 0.00 | 0.00 | 63 | 1013.3 |
| 20260508001258 | 71 | 182 | 0.0 | 5.0 | 0.00 | 0.00 | 0.00 | 63 | 1013.3 |
| 20260508000523 | 71 | 173 | 1.0 | 5.0 | 0.00 | 0.00 | 0.00 | 63 | 1013.3 |
| 20260508000017 | 72 | 191 | 1.0 | 5.0 | 0.00 | 0.00 | 0.00 | 62 | 1013.3 |
| 20260507235512 | 72 | 195 | 1.0 | 6.0 | 0.00 | 0.00 | 0.00 | 62 | 1013.3 |
| 20260507235233 | 72 | 251 | 1.0 | 6.0 | 0.00 | 0.00 | 0.00 | 61 | 1013.2 |
| 20260507234459 | 73 | 244 | 1.0 | 6.0 | 0.00 | 0.00 | 0.00 | 61 | 1013.2 |
| 20260507233953 | 73 | 194 | 1.0 | 6.0 | 0.00 | 0.00 | 0.00 | 60 | 1013.2 |
| 20260507233447 | 73 | 233 | 0.0 | 5.0 | 0.00 | 0.00 | 0.00 | 61 | 1013.2 |
| 20260507232941 | 73 | 217 | 0.0 | 5.0 | 0.00 | 0.00 | 0.00 | 61 | 1013.3 |
| 20260507232435 | 73 | 180 | 0.0 | 5.0 | 0.00 | 0.00 | 0.00 | 61 | 1013.3 |
| 20260507232414 | 73 | 209 | 0.0 | 5.0 | 0.00 | 0.00 | 0.00 | 61 | 1013.2 |
| 20260507231424 | 73 | 155 | 0.0 | 5.0 | 0.00 | 0.00 | 0.00 | 61 | 1013.1 |
| 20260507230917 | 73 | 163 | 0.0 | 6.0 | 0.00 | 0.00 | 0.00 | 61 | 1013.2 |
| 20260507230412 | 73 | 196 | 0.0 | 6.0 | 0.00 | 0.00 | 0.00 | 61 | 1013.2 |
| 20260507225905 | 72 | 218 | 1.0 | 11.0 | 0.00 | 0.00 | 0.00 | 62 | 1013.2 |
| 20260507225359 | 72 | 173 | 2.0 | 11.0 | 0.00 | 0.00 | 0.00 | 62 | 1013.4 |
| 20260507225335 | 72 | 238 | 4.0 | 12.0 | 0.00 | 0.00 | 0.00 | 61 | 1013.2 |
| 20260507224347 | 73 | 271 | 3.0 | 12.0 | 0.00 | 0.00 | 0.00 | 61 | 1013.2 |
| 20260507223842 | 73 | 270 | 2.0 | 10.0 | 0.00 | 0.00 | 0.00 | 60 | 1013.3 |
| 20260507223337 | 73 | 198 | 1.0 | 10.0 | 0.00 | 0.00 | 0.00 | 60 | 1013.4 |
| 20260507222831 | 73 | 238 | 2.0 | 10.0 | 0.00 | 0.00 | 0.00 | 61 | 1013.3 |
| 20260507222325 | 73 | 244 | 3.0 | 10.0 | 0.00 | 0.00 | 0.00 | 60 | 1013.3 |
| 20260507221818 | 73 | 190 | 3.0 | 11.0 | 0.00 | 0.00 | 0.00 | 61 | 1013.3 |
| 20260507221311 | 73 | 244 | 5.0 | 11.0 | 0.00 | 0.00 | 0.00 | 61 | 1013.3 |
| 20260507220805 | 73 | 210 | 5.0 | 12.0 | 0.00 | 0.00 | 0.00 | 60 | 1013.3 |
| 20260507220259 | 74 | 238 | 4.0 | 12.0 | 0.00 | 0.00 | 0.00 | 60 | 1013.4 |
| 20260507215754 | 74 | 221 | 3.0 | 10.0 | 0.00 | 0.00 | 0.00 | 60 | 1013.4 |
| 20260507215248 | 74 | 234 | 3.0 | 10.0 | 0.00 | 0.00 | 0.00 | 58 | 1013.6 |
| 20260507214742 | 74 | 255 | 3.0 | 10.0 | 0.00 | 0.00 | 0.00 | 58 | 1013.7 |
| 20260507214724 | 75 | 238 | 2.0 | 11.0 | 0.00 | 0.00 | 0.00 | 58 | 1013.8 |
| 20260507213729 | 75 | 229 | 2.0 | 11.0 | 0.00 | 0.00 | 0.00 | 57 | 1013.8 |
| 20260507213224 | 75 | 183 | 2.0 | 11.0 | 0.00 | 0.00 | 0.00 | 57 | 1013.8 |
| 20260507212718 | 75 | 252 | 2.0 | 11.0 | 0.00 | 0.00 | 0.00 | 57 | 1013.9 |
| 20260507212211 | 76 | 252 | 1.0 | 10.0 | 0.00 | 0.00 | 0.00 | 57 | 1013.9 |
| 20260507211923 | 75 | 249 | 2.0 | 11.0 | 0.00 | 0.00 | 0.00 | 58 | 1014.0 |
| 20260507211428 | 75 | 254 | 2.0 | 11.0 | 0.00 | 0.00 | 0.00 | 58 | 1014.0 |
| 20260507210654 | 75 | 237 | 2.0 | 10.0 | 0.00 | 0.00 | 0.00 | 59 | 1014.0 |
| 20260507210148 | 75 | 300 | 3.0 | 10.0 | 0.00 | 0.00 | 0.00 | 58 | 1014.1 |
| 20260507205643 | 74 | 247 | 3.0 | 10.0 | 0.00 | 0.00 | 0.00 | 58 | 1014.1 |
| 20260507205139 | 75 | 224 | 3.0 | 11.0 | 0.00 | 0.00 | 0.00 | 58 | 1014.1 |
| 20260507204631 | 74 | 221 | 2.0 | 11.0 | 0.00 | 0.00 | 0.00 | 59 | 1014.1 |
| 20260507204123 | 75 | 235 | 3.0 | 12.0 | 0.00 | 0.00 | 0.00 | 59 | 1014.2 |
| 20260507203624 | 74 | 273 | 4.0 | 12.0 | 0.00 | 0.00 | 0.00 | 58 | 1014.2 |
| 20260507203115 | 74 | 246 | 3.0 | 10.0 | 0.00 | 0.00 | 0.00 | 58 | 1014.2 |
| 20260507202606 | 74 | 249 | 3.0 | 10.0 | 0.00 | 0.00 | 0.00 | 59 | 1014.2 |
| 20260507202059 | 74 | 261 | 3.0 | 10.0 | 0.00 | 0.00 | 0.00 | 59 | 1014.1 |
| 20260507201553 | 75 | 236 | 3.0 | 10.0 | 0.00 | 0.00 | 0.00 | 59 | 1014.1 |
| 20260507201048 | 75 | 287 | 3.0 | 11.0 | 0.00 | 0.00 | 0.00 | 58 | 1014.1 |
| 20260507200541 | 75 | 259 | 2.0 | 11.0 | 0.00 | 0.00 | 0.00 | 59 | 1014.1 |
| 20260507200035 | 75 | 212 | 2.0 | 9.0 | 0.00 | 0.00 | 0.00 | 60 | 1014.2 |
| 20260507195529 | 74 | 326 | 1.0 | 9.0 | 0.00 | 0.00 | 0.00 | 58 | 1014.2 |
| 20260507195507 | 75 | 275 | 1.0 | 7.0 | 0.00 | 0.00 | 0.00 | 59 | 1014.2 |
| 20260507194743 | 75 | 266 | 1.0 | 7.0 | 0.00 | 0.00 | 0.00 | 59 | 1014.3 |
| 20260507194234 | 75 | 227 | 1.0 | 7.0 | 0.00 | 0.00 | 0.00 | 59 | 1014.2 |
| 20260507193505 | 74 | 278 | 1.0 | 6.0 | 0.00 | 0.00 | 0.00 | 60 | 1014.3 |
| 20260507192959 | 74 | 296 | 1.0 | 8.0 | 0.00 | 0.00 | 0.00 | 60 | 1014.5 |
| 20260507192453 | 74 | 254 | 1.0 | 8.0 | 0.00 | 0.00 | 0.00 | 60 | 1014.5 |
| 20260507192211 | 74 | 337 | 1.0 | 8.0 | 0.00 | 0.00 | 0.00 | 60 | 1014.6 |
| 20260507191441 | 74 | 238 | 1.0 | 8.0 | 0.00 | 0.00 | 0.00 | 60 | 1014.6 |
| 20260507190935 | 74 | 272 | 0.0 | 0.0 | 0.00 | 0.00 | 0.00 | 60 | 1014.7 |
| 20260507190430 | 74 | 244 | 0.0 | 0.0 | 0.00 | 0.00 | 0.00 | 60 | 1014.9 |
| 20260507185924 | 74 | 33 | 0.0 | 0.0 | 0.00 | 0.00 | 0.00 | 61 | 1014.7 |
| 20260507185418 | 74 | 224 | 0.0 | 0.0 | 0.00 | 0.00 | 0.00 | 59 | 1014.9 |
| 20260507184913 | 74 | 288 | 0.0 | 0.0 | 0.00 | 0.00 | 0.00 | 60 | 1014.8 |
| 20260507184406 | 74 | 266 | 0.0 | 0.0 | 0.00 | 0.00 | 0.00 | 60 | 1014.9 |
| 20260507183859 | 73 | 279 | 0.0 | 0.0 | 0.00 | 0.00 | 0.00 | 60 | 1015.0 |
| 20260507183615 | 73 | 117 | 0.0 | 0.0 | 0.00 | 0.00 | 0.00 | 61 | 1014.9 |
| 20260507182847 | 72 | 169 | 0.0 | 0.0 | 0.00 | 0.00 | 0.00 | 61 | 1014.8 |
| 20260507182341 | 72 | 239 | 0.0 | 0.0 | 0.00 | 0.00 | 0.00 | 62 | 1014.9 |
| 20260507181838 | 72 | 311 | 0.0 | 0.0 | 0.00 | 0.00 | 0.00 | 62 | 1015.0 |
| 20260507181329 | 72 | 209 | 0.0 | 0.0 | 0.00 | 0.00 | 0.00 | 62 | 1015.1 |
| 20260507180823 | 72 | 277 | 0.0 | 0.0 | 0.00 | 0.00 | 0.00 | 61 | 1015.1 |
| 20260507180318 | 72 | 237 | 0.0 | 0.0 | 0.00 | 0.00 | 0.00 | 61 | 1015.2 |
| 20260507175814 | 72 | 265 | 0.0 | 0.0 | 0.00 | 0.00 | 0.00 | 60 | 1015.2 |
| 20260507175307 | 71 | 285 | 0.0 | 0.0 | 0.00 | 0.00 | 0.00 | 63 | 1015.3 |
| 20260507174800 | 71 | 252 | 0.0 | 0.0 | 0.00 | 0.00 | 0.00 | 62 | 1015.2 |
| 20260507174520 | 71 | 242 | 0.0 | 0.0 | 0.00 | 0.00 | 0.00 | 62 | 1015.4 |
| 20260507173748 | 71 | 300 | 0.0 | 0.0 | 0.00 | 0.00 | 0.00 | 63 | 1015.4 |
| 20260507173241 | 70 | 304 | 0.0 | 0.0 | 0.00 | 0.00 | 0.00 | 64 | 1015.3 |
| 20260507172735 | 70 | 15 | 0.0 | 0.0 | 0.00 | 0.00 | 0.00 | 64 | 1015.3 |
| 20260507172234 | 69 | 188 | 0.0 | 0.0 | 0.00 | 0.00 | 0.00 | 64 | 1015.4 |
| 20260507171724 | 69 | 334 | 0.0 | 0.0 | 0.00 | 0.00 | 0.00 | 65 | 1015.4 |
| 20260507171444 | 69 | 239 | 0.0 | 0.0 | 0.00 | 0.00 | 0.00 | 64 | 1015.4 |
| 20260507170712 | 69 | 9 | 0.0 | 0.0 | 0.00 | 0.00 | 0.00 | 64 | 1015.4 |
| 20260507170210 | 69 | 344 | 0.0 | 0.0 | 0.00 | 0.00 | 0.00 | 64 | 1015.4 |
| 20260507165659 | 68 | 272 | 0.0 | 0.0 | 0.00 | 0.00 | 0.00 | 65 | 1015.5 |
| 20260507165154 | 68 | 355 | 0.0 | 0.0 | 0.00 | 0.00 | 0.00 | 66 | 1015.4 |
| 20260507164905 | 68 | 30 | 0.0 | 0.0 | 0.00 | 0.00 | 0.00 | 66 | 1015.3 |
| 20260507164143 | 68 | 344 | 0.0 | 0.0 | 0.00 | 0.00 | 0.00 | 66 | 1015.5 |
| 20260507163902 | 67 | 42 | 0.0 | 0.0 | 0.00 | 0.00 | 0.00 | 68 | 1015.6 |
| 20260507163131 | 67 | 355 | 0.0 | 0.0 | 0.00 | 0.00 | 0.00 | 69 | 1015.5 |
| 20260507162624 | 66 | 269 | 0.0 | 0.0 | 0.00 | 0.00 | 0.00 | 70 | 1015.5 |
| 20260507162118 | 65 | 311 | 0.0 | 0.0 | 0.00 | 0.00 | 0.00 | 70 | 1015.6 |
| 20260507161612 | 65 | 15 | 0.0 | 0.0 | 0.00 | 0.00 | 0.00 | 70 | 1015.6 |
| 20260507161105 | 65 | 322 | 0.0 | 0.0 | 0.00 | 0.00 | 0.00 | 71 | 1015.6 |
| 20260507160826 | 65 | 290 | 0.0 | 0.0 | 0.00 | 0.00 | 0.00 | 72 | 1015.6 |
| 20260507160053 | 65 | 271 | 0.0 | 0.0 | 0.00 | 0.00 | 0.00 | 71 | 1015.6 |
| 20260507155548 | 65 | 18 | 0.0 | 0.0 | 0.00 | 0.00 | 0.00 | 71 | 1015.6 |
| 20260507155041 | 65 | 347 | 0.0 | 0.0 | 0.00 | 0.00 | 0.00 | 71 | 1015.6 |
| 20260507154537 | 64 | 17 | 0.0 | 0.0 | 0.00 | 0.00 | 0.00 | 72 | 1015.8 |
| 20260507154029 | 64 | 17 | 0.0 | 0.0 | 0.00 | 0.00 | 0.00 | 72 | 1015.6 |
| 20260507153524 | 64 | 323 | 0.0 | 0.0 | 0.00 | 0.00 | 0.00 | 72 | 1015.6 |
| 20260507153017 | 64 | 267 | 0.0 | 0.0 | 0.00 | 0.00 | 0.00 | 72 | 1015.6 |
| 20260507152733 | 64 | 295 | 0.0 | 0.0 | 0.00 | 0.00 | 0.00 | 71 | 1015.6 |
| 20260507152231 | 63 | 92 | 0.0 | 0.0 | 0.00 | 0.00 | 0.00 | 73 | 1015.9 |
| 20260507151500 | 63 | 284 | 0.0 | 0.0 | 0.00 | 0.00 | 0.00 | 74 | 1015.8 |
| 20260507150953 | 63 | 236 | 0.0 | 0.0 | 0.00 | 0.00 | 0.00 | 74 | 1015.8 |
| 20260507150447 | 63 | 13 | 0.0 | 0.0 | 0.00 | 0.00 | 0.00 | 75 | 1015.6 |
| 20260507145942 | 62 | 13 | 0.0 | 0.0 | 0.00 | 0.00 | 0.00 | 77 | 1015.6 |
| 20260507145435 | 61 | 349 | 0.0 | 0.0 | 0.00 | 0.00 | 0.00 | 79 | 1015.5 |
| 20260507144930 | 60 | 186 | 0.0 | 0.0 | 0.00 | 0.00 | 0.00 | 82 | 1015.4 |
| 20260507144423 | 60 | 186 | 0.0 | 0.0 | 0.00 | 0.00 | 0.00 | 83 | 1015.5 |
| 20260507143917 | 59 | 182 | 0.0 | 0.0 | 0.00 | 0.00 | 0.00 | 85 | 1015.4 |
| 20260507143411 | 58 | 175 | 0.0 | 0.0 | 0.00 | 0.00 | 0.00 | 86 | 1015.3 |
| 20260507142906 | 57 | 159 | 0.0 | 0.0 | 0.00 | 0.00 | 0.00 | 86 | 1015.3 |
| 20260507142359 | 57 | 162 | 0.0 | 0.0 | 0.00 | 0.00 | 0.00 | 86 | 1015.2 |
| 20260507142120 | 57 | 162 | 0.0 | 0.0 | 0.00 | 0.00 | 0.00 | 88 | 1015.2 |
| 20260507141347 | 56 | 173 | 0.0 | 0.0 | 0.00 | 0.00 | 0.00 | 89 | 1015.2 |
| 20260507140842 | 56 | 181 | 0.0 | 0.0 | 0.00 | 0.00 | 0.00 | 90 | 1015.2 |
| 20260507140335 | 55 | 188 | 0.0 | 0.0 | 0.00 | 0.00 | 0.00 | 90 | 1015.2 |
| 20260507135829 | 55 | 202 | 0.0 | 0.0 | 0.00 | 0.00 | 0.00 | 91 | 1015.1 |
| 20260507135323 | 55 | 173 | 0.0 | 0.0 | 0.00 | 0.00 | 0.00 | 91 | 1015.0 |
| 20260507135042 | 54 | 169 | 0.0 | 0.0 | 0.00 | 0.00 | 0.00 | 91 | 1015.0 |
| 20260507134311 | 54 | 182 | 0.0 | 0.0 | 0.00 | 0.00 | 0.00 | 91 | 1015.1 |
| 20260507133806 | 54 | 188 | 0.0 | 0.0 | 0.00 | 0.00 | 0.00 | 91 | 1015.1 |
| 20260507133259 | 54 | 178 | 0.0 | 0.0 | 0.00 | 0.00 | 0.00 | 92 | 1015.1 |
| 20260507132753 | 53 | 171 | 0.0 | 0.0 | 0.00 | 0.00 | 0.00 | 91 | 1014.9 |
| 20260507132247 | 53 | 164 | 0.0 | 0.0 | 0.00 | 0.00 | 0.00 | 91 | 1015.0 |
| 20260507131741 | 53 | 173 | 0.0 | 0.0 | 0.00 | 0.00 | 0.00 | 91 | 1015.0 |
| 20260507131236 | 53 | 187 | 0.0 | 0.0 | 0.00 | 0.00 | 0.00 | 91 | 1015.0 |
| 20260507130729 | 53 | 207 | 0.0 | 0.0 | 0.00 | 0.00 | 0.00 | 90 | 1014.9 |
| 20260507130224 | 53 | 188 | 0.0 | 0.0 | 0.00 | 0.00 | 0.00 | 90 | 1014.8 |
| 20260507125717 | 53 | 184 | 0.0 | 0.0 | 0.00 | 0.00 | 0.00 | 90 | 1014.8 |
| 20260507125211 | 53 | 184 | 0.0 | 0.0 | 0.00 | 0.00 | 0.00 | 91 | 1014.8 |
| 20260507124705 | 53 | 180 | 0.0 | 0.0 | 0.00 | 0.00 | 0.00 | 91 | 1014.7 |
| 20260507124159 | 53 | 190 | 0.0 | 0.0 | 0.00 | 0.00 | 0.00 | 91 | 1014.7 |
| 20260507123653 | 53 | 196 | 0.0 | 0.0 | 0.00 | 0.00 | 0.00 | 91 | 1014.6 |
| 20260507123147 | 53 | 188 | 0.0 | 0.0 | 0.00 | 0.00 | 0.00 | 91 | 1014.6 |
| 20260507122641 | 53 | 207 | 0.0 | 0.0 | 0.00 | 0.00 | 0.00 | 91 | 1014.6 |
| 20260507122135 | 53 | 219 | 0.0 | 0.0 | 0.00 | 0.00 | 0.00 | 91 | 1014.7 |
| 20260507121854 | 53 | 232 | 0.0 | 0.0 | 0.00 | 0.00 | 0.00 | 90 | 1014.7 |
| 20260507121123 | 53 | 232 | 0.0 | 0.0 | 0.00 | 0.00 | 0.00 | 90 | 1014.7 |
| 20260507120617 | 53 | 232 | 0.0 | 0.0 | 0.00 | 0.00 | 0.00 | 90 | 1014.6 |
| 20260507120111 | 53 | 232 | 0.0 | 0.0 | 0.00 | 0.00 | 0.00 | 89 | 1014.5 |
| 20260507115605 | 53 | 232 | 0.0 | 0.0 | 0.00 | 0.00 | 0.00 | 89 | 1014.7 |
| 20260507115059 | 53 | 232 | 0.0 | 0.0 | 0.00 | 0.00 | 0.00 | 88 | 1014.7 |
| 20260507114825 | 53 | 232 | 0.0 | 0.0 | 0.00 | 0.00 | 0.00 | 88 | 1014.6 |
| 20260507114047 | 53 | 232 | 0.0 | 0.0 | 0.00 | 0.00 | 0.00 | 88 | 1014.5 |
| 20260507113541 | 54 | 232 | 0.0 | 0.0 | 0.00 | 0.00 | 0.00 | 88 | 1014.6 |